Location: Newark
(48.5667°N, 7.8167°E)
Time: 07:38:20
(UTC+00:00)

JY1SAT - Pass Details

Date: 01 August 2021
Orbit: 568 x 591 km, 97.7° (Epoch: 26 September)

Event Time Altitude Azimuth Distance (km) Brightness Sun altitude
Exits shadow 19:47:58 - 111° (ESE) 2,123 ? -6.7°
Reaches altitude 10° 19:48:40 10° 105° (ESE) 1,919 ? -6.8°
Maximum altitude 19:51:29 18° 62° (ENE) 1,473 ? -7.1°
Drops below altitude 10° 19:54:20 10° 19° (NNE) 1,934 ? -7.5°
Sets 19:57:03 0° 0° (N) 2,842 ? -7.9°
